1491411600.8,30531,15.0,73348.3,-1.99,-3.51,-3.55,0,*51
1491411602.04,30532,15.0,73346.0,-2.01,-3.55,-3.55,0,*54
1491411603.3,30533,15.0,73346.0,-1.99,-3.55,-3.55,0,*57
1491411604.53,30534,15.0,73344.8,-2.01,-3.55,-3.63,0,*57
1491411605.8,30535,15.0,73344.3,-1.99,-3.55,-3.55,0,*51
1491411607.03,30536,15.0,73350.3,-2.01,-3.55,-3.63,0,*55
1491411608.26,30537,15.0,73344.0,-2.01,-3.55,-3.55,0,*51
1491411609.5,30538,15.0,73344.8,-2.01,-3.43,-3.51,0,*5D
1491411610.74,30539,15.0,73344.0,-2.01,-3.43,-3.43,0,*5F
1491411611.98,30540,15.0,73342.3,-2.01,-3.51,-3.43,0,*52
1491411613.22,30541,15.0,73344.0,-2.01,-3.43,-3.43,0,*50
1491411614.46,30542,15.0,73344.5,-2.01,-3.43,-3.43,0,*53
1491411615.7,30543,15.0,73348.0,-1.99,-3.39,-3.43,0,*5D
1491411616.95,30544,15.0,73344.3,-1.99,-3.39,-3.43,0,*5A
1491411618.22,30545,15.0,73346.0,-1.99,-3.43,-3.43,0,*56
1491411619.41,30546,15.0,73346.3,-2.01,-3.39,-3.39,0,*57
1491411620.65,30547,15.0,73344.8,-1.99,-3.39,-3.43,0,*59
1491411621.87,30548,15.0,73348.3,-2.01,-3.39,-3.43,0,*54
1491411623.09,30549,15.0,73348.0,-2.01,-3.39,-3.43,0,*55
1491411624.3,30550,15.0,73342.5,-2.01,-3.43,-3.39,0,*5D
1491411625.57,30551,15.0,73344.5,-1.99,-3.43,-3.51,0,*50
1491411626.84,30552,15.0,73350.3,-1.99,-3.51,-3.51,0,*50
1491411628.1,30553,15.0,73346.0,-1.99,-3.43,-3.51,0,*52
1491411629.34,30554,15.0,73348.0,-2.01,-3.51,-3.51,0,*54
1491411630.58,30555,15.0,73348.5,-2.01,-3.43,-3.51,0,*56
1491411631.82,30556,15.0,73346.3,-2.01,-3.51,-3.43,0,*55
1491411633.06,30557,15.0,73344.3,-2.01,-3.43,-3.51,0,*54
1491411634.3,30558,15.0,73346.8,-2.01,-3.43,-3.51,0,*5B
1491411635.54,30559,15.0,73344.8,-2.01,-3.43,-3.51,0,*5A
1491411636.78,30560,15.0,73346.0,-2.01,-3.51,-3.51,0,*53
1491411638.05,30561,15.0,73346.5,-1.99,-3.43,-3.51,0,*53
1491411639.28,30562,15.0,73348.0,-2.01,-3.55,-3.55,0,*51
1491411640.51,30563,15.0,73346.0,-2.01,-3.55,-3.55,0,*50
1491411641.78,30564,15.0,73346.5,-1.99,-3.51,-3.63,0,*54
1491411643.01,30565,15.0,73346.0,-2.01,-3.55,-3.55,0,*56
1491411644.25,30566,15.0,73344.0,-2.01,-3.43,-3.55,0,*52
1491411645.49,30567,15.0,73344.0,-2.01,-3.51,-3.55,0,*50
1491411646.72,30568,14.94,73340.8,-2.01,-3.51,-3.55,0,*5F
1491411647.96,30569,15.0,73346.3,-2.01,-3.51,-3.55,0,*5E
1491411649.2,30570,15.0,73344.3,-2.01,-3.51,-3.55,0,*56
1491411650.44,30571,15.0,73344.3,-2.01,-3.51,-3.63,0,*52
1491411651.67,30572,15.0,73346.5,-2.01,-3.51,-3.55,0,*54
1491411652.91,30573,15.0,73344.8,-2.01,-3.55,-3.63,0,*54
1491411654.14,30574,15.0,73346.0,-2.01,-3.55,-3.55,0,*56
1491411655.38,30575,15.0,73344.8,-2.01,-3.55,-3.55,0,*57
1491411656.61,30576,15.0,73344.3,-2.01,-3.55,-3.63,0,*51
1491411657.85,30577,15.0,73346.5,-2.01,-3.55,-3.55,0,*55
1491411659.08,30578,15.0,73346.8,-2.01,-3.55,-3.55,0,*5A
1491411660.32,30579,14.94,73342.5,-2.01,-3.51,-3.55,0,*5F
1491411661.56,30580,15.0,73346.0,-2.01,-3.63,-3.55,0,*58
1491411662.79,30581,15.0,73344.3,-2.01,-3.55,-3.51,0,*58
1491411664.03,30582,15.0,73346.5,-2.05,-3.55,-3.55,0,*5B
1491411665.27,30583,15.0,73346.8,-2.05,-3.47,-3.47,0,*5A
1491411666.51,30584,15.0,73344.3,-2.05,-3.55,-3.47,0,*5E
1491411667.75,30585,14.94,73342.5,-2.05,-3.55,-3.55,0,*5C
1491411668.99,30586,15.0,73342.8,-2.05,-3.55,-3.55,0,*5F
1491411670.23,30587,15.0,73344.0,-2.05,-3.55,-3.55,0,*5E
1491411671.47,30588,15.0,73344.5,-2.01,-3.43,-3.51,0,*56
1491411672.71,30589,14.94,73340.8,-2.01,-3.51,-3.51,0,*54
1491411673.94,30590,15.0,73346.0,-2.01,-3.43,-3.51,0,*5F
1491411675.19,30591,15.0,73344.0,-2.01,-3.51,-3.43,0,*5E
1491411676.43,30592,15.0,73344.3,-2.01,-3.51,-3.51,0,*5E
1491411677.67,30593,15.0,73344.8,-2.05,-3.55,-3.59,0,*57
1491411678.91,30594,15.0,73344.8,-2.05,-3.55,-3.55,0,*5C
1491411680.17,30595,15.0,73344.5,-2.07,-3.55,-3.55,0,*5F
1491411681.41,30596,15.0,73342.8,-2.01,-3.51,-3.43,0,*59
1491411682.65,30597,15.0,73342.3,-2.01,-3.43,-3.43,0,*5B
1491411683.89,30598,15.0,73344.3,-2.05,-3.43,-3.47,0,*54
1491411685.13,30599,15.0,73344.3,-2.05,-3.47,-3.55,0,*52
1491411686.38,30600,14.94,73342.5,-2.05,-3.47,-3.47,0,*52
1491411687.62,30601,15.0,73344.0,-2.05,-3.47,-3.55,0,*50
1491411688.86,30602,15.0,73344.8,-2.05,-3.47,-3.47,0,*50
1491411690.1,30603,15.0,73348.3,-2.05,-3.43,-3.43,0,*51
1491411691.37,30604,15.0,73344.8,-2.07,-3.43,-3.47,0,*50
1491411692.61,30605,15.0,73344.8,-2.05,-3.43,-3.47,0,*53
1491411693.81,30606,15.0,73346.0,-2.05,-3.35,-3.35,0,*54
1491411695.01,30607,14.94,73344.3,-2.05,-3.31,-3.35,0,*51
1491411696.21,30608,15.0,73344.5,-2.05,-3.35,-3.35,0,*5A
1491411697.43,30609,15.0,73344.8,-2.05,-3.35,-3.43,0,*5A
1491411698.63,30610,15.0,73344.0,-2.05,-3.35,-3.35,0,*53
1491411699.83,30611,15.0,73344.8,-2.05,-3.35,-3.35,0,*52
1491411701.03,30612,15.0,73344.3,-2.05,-3.35,-3.35,0,*51
1491411702.25,30613,15.0,73344.5,-2.05,-3.35,-3.47,0,*55
1491411703.52,30614,15.0,73348.0,-2.07,-3.43,-3.43,0,*55
1491411704.72,30615,15.0,73344.3,-2.05,-3.35,-3.35,0,*56
1491411705.91,30616,15.0,73344.3,-2.05,-3.31,-3.31,0,*55
1491411707.11,30617,15.0,73346.3,-2.05,-3.31,-3.35,0,*50
1491411708.3,30618,15.0,73344.8,-2.05,-3.23,-3.23,0,*5B
1491411709.55,30619,15.0,73344.0,-2.07,-3.31,-3.43,0,*5D
1491411710.8,30620,15.0,73346.8,-2.07,-3.43,-3.35,0,*53
1491411712.02,30621,15.0,73346.5,-2.05,-3.43,-3.35,0,*50
1491411713.22,30622,15.0,73348.0,-2.05,-3.35,-3.35,0,*52
1491411714.42,30623,15.0,73344.0,-2.05,-3.35,-3.35,0,*53
1491411715.64,30624,14.94,73342.8,-2.05,-3.35,-3.43,0,*55
1491411716.88,30625,15.0,73346.0,-2.05,-3.43,-3.43,0,*55
1491411718.08,30626,15.0,73346.5,-2.05,-3.35,-3.35,0,*56
1491411719.28,30627,15.0,73346.5,-2.05,-3.35,-3.35,0,*57
1491411720.47,30628,15.0,73346.8,-2.05,-3.19,-3.31,0,*52
1491411721.66,30629,15.0,73344.0,-2.05,-3.23,-3.31,0,*5A
1491411722.89,30630,15.0,73344.3,-2.05,-3.31,-3.43,0,*54
1491411724.11,30631,15.0,73346.3,-2.05,-3.35,-3.43,0,*51
1491411725.3,30632,15.0,73344.3,-2.01,-3.27,-3.31,0,*50
1491411726.49,30633,15.0,73348.3,-2.01,-3.31,-3.31,0,*56
1491411727.74,30634,15.0,73348.0,-2.07,-3.35,-3.55,0,*51
1491411728.98,30635,15.0,73344.8,-2.05,-3.43,-3.55,0,*53
1491411730.22,30636,15.0,73348.3,-2.05,-3.43,-3.47,0,*53
1491411731.46,30637,15.0,73346.3,-2.05,-3.43,-3.43,0,*56
1491411732.7,30638,14.94,73342.5,-2.05,-3.43,-3.43,0,*59
1491411733.95,30639,14.94,73344.3,-2.05,-3.47,-3.43,0,*5C
1491411735.19,30640,15.0,73348.5,-2.05,-3.43,-3.43,0,*56
1491411736.43,30641,15.0,73344.8,-2.05,-3.43,-3.47,0,*53
1491411737.66,30642,14.94,73346.8,-2.07,-3.35,-3.35,0,*56
1491411738.88,30643,15.0,73348.3,-2.05,-3.35,-3.43,0,*54
1491411740.1,30644,15.0,73344.5,-2.05,-3.35,-3.43,0,*53
1491411741.35,30645,15.0,73348.5,-2.07,-3.35,-3.43,0,*50
1491411742.55,30646,15.0,73348.5,-2.05,-3.31,-3.35,0,*54
1491411743.74,30647,15.0,73344.5,-2.05,-3.23,-3.35,0,*56
1491411744.93,30648,15.0,73346.8,-2.05,-3.31,-3.23,0,*5D
1491411746.13,30649,15.0,73344.5,-2.05,-3.31,-3.31,0,*5F
1491411747.36,30650,15.0,73346.8,-2.07,-3.35,-3.35,0,*55
1491411748.55,30651,15.0,73346.8,-2.05,-3.35,-3.31,0,*52
1491411749.74,30652,15.0,73346.5,-2.05,-3.23,-3.31,0,*56
1491411750.93,30653,14.94,73344.5,-2.05,-3.23,-3.23,0,*54
1491411752.12,30654,15.0,73346.8,-2.05,-3.23,-3.23,0,*53
1491411753.31,30655,15.0,73344.5,-2.05,-3.31,-3.31,0,*52
1491411754.54,30656,14.94,73342.5,-2.07,-3.31,-3.35,0,*57
1491411755.75,30657,14.94,73342.5,-2.05,-3.43,-3.23,0,*56
1491411756.98,30658,14.94,73346.5,-2.07,-3.35,-3.31,0,*59
1491411758.18,30659,14.94,73346.0,-2.05,-3.35,-3.35,0,*5E
1491411759.38,30660,15.0,73350.0,-2.05,-3.31,-3.35,0,*50
1491411760.58,30661,15.0,73346.3,-2.05,-3.35,-3.35,0,*55
1491411761.78,30662,14.94,73346.8,-2.05,-3.31,-3.31,0,*56
1491411763.0,30663,15.0,73350.3,-2.07,-3.31,-3.31,0,*55
1491411764.2,30664,14.94,73344.8,-2.05,-3.31,-3.31,0,*50
1491411765.4,30665,15.0,73350.8,-2.05,-3.31,-3.35,0,*55
1491411766.62,30666,14.94,73344.5,-2.05,-3.43,-3.35,0,*53
1491411767.82,30667,15.0,73346.8,-2.05,-3.35,-3.35,0,*53
1491411769.02,30668,14.94,73342.0,-2.05,-3.35,-3.35,0,*5C
1491411770.27,30669,14.94,73346.8,-2.07,-3.43,-3.35,0,*5E
1491411771.46,30670,14.94,73346.5,-2.05,-3.23,-3.35,0,*52
1491411772.65,30671,14.94,73344.5,-2.05,-3.23,-3.23,0,*54
1491411773.87,30672,14.94,73346.3,-2.07,-3.31,-3.35,0,*51
1491411775.09,30673,14.94,73346.3,-2.05,-3.31,-3.43,0,*53
1491411776.29,30674,15.0,73348.0,-2.05,-3.31,-3.35,0,*55
1491411777.49,30675,15.0,73346.5,-2.05,-3.31,-3.35,0,*54
1491411778.73,30676,15.0,73348.0,-2.05,-3.47,-3.47,0,*53
1491411780.0,30677,15.0,73344.3,-2.07,-3.47,-3.55,0,*53
1491411781.24,30678,14.94,73346.3,-2.05,-3.55,-3.43,0,*5A
1491411782.49,30679,15.0,73344.8,-2.05,-3.47,-3.43,0,*58
1491411783.73,30680,14.94,73344.8,-2.05,-3.47,-3.55,0,*59
1491411784.97,30681,14.94,73344.3,-2.05,-3.59,-3.67,0,*56
1491411786.22,30682,15.0,73344.8,-2.05,-3.59,-3.59,0,*58
1491411787.46,30683,14.94,73344.8,-2.05,-3.55,-3.55,0,*59
1491411788.73,30684,14.94,73344.5,-2.07,-3.55,-3.55,0,*5C
1491411789.97,30685,14.94,73344.3,-2.05,-3.55,-3.47,0,*5C
1491411791.21,30686,14.94,73344.5,-2.05,-3.47,-3.47,0,*5C
1491411792.45,30687,14.94,73346.0,-2.05,-3.55,-3.55,0,*5D
1491411793.71,30688,15.0,73348.8,-2.07,-3.55,-3.47,0,*53
1491411794.98,30689,14.94,73346.8,-2.07,-3.55,-3.55,0,*51
1491411796.24,30690,14.94,73344.3,-2.07,-3.55,-3.55,0,*59
1491411797.51,30691,14.94,73344.0,-2.07,-3.55,-3.55,0,*58
1491411798.77,30692,14.94,73346.0,-2.07,-3.55,-3.55,0,*5B
1491411800.01,30693,15.0,73346.5,-2.05,-3.55,-3.55,0,*58
1491411801.27,30694,14.94,73344.3,-2.07,-3.55,-3.55,0,*5D
1491411802.55,30695,14.94,73344.0,-2.07,-3.47,-3.43,0,*58
1491411803.81,30696,14.94,73346.8,-2.07,-3.55,-3.43,0,*58
1491411805.09,30697,15.0,73350.3,-2.07,-3.47,-3.43,0,*5A
1491411806.33,30698,14.94,73344.0,-2.05,-3.47,-3.47,0,*53
1491411807.59,30699,15.0,73346.3,-2.07,-3.55,-3.47,0,*53
1491411808.86,30700,14.94,73344.5,-2.07,-3.47,-3.47,0,*51
1491411810.09,30701,14.94,73346.0,-2.07,-3.35,-3.35,0,*50
1491411811.34,30702,15.0,73344.5,-2.07,-3.43,-3.35,0,*52
1491411812.61,30703,15.0,73344.3,-2.07,-3.43,-3.43,0,*52
1491411813.88,30704,14.94,73346.5,-2.07,-3.43,-3.43,0,*55
1491411815.15,30705,14.94,73344.5,-2.07,-3.43,-3.43,0,*54
1491411816.41,30706,14.94,73344.5,-2.07,-3.47,-3.47,0,*57
1491411817.66,30707,15.0,73344.0,-2.05,-3.47,-3.47,0,*54
1491411818.9,30708,14.94,73340.8,-2.05,-3.47,-3.47,0,*5B
1491411820.16,30709,14.94,73340.8,-2.07,-3.43,-3.55,0,*5F
1491411821.43,30710,14.94,73340.0,-2.07,-3.55,-3.55,0,*50
1491411822.7,30711,14.94,73344.5,-2.07,-3.47,-3.47,0,*51
1491411823.97,30712,15.0,73346.8,-2.07,-3.47,-3.47,0,*52
1491411825.24,30713,15.0,73346.8,-2.07,-3.47,-3.47,0,*53
1491411826.5,30714,14.94,73344.8,-2.07,-3.43,-3.55,0,*53
1491411827.77,30715,14.94,73346.5,-2.07,-3.55,-3.55,0,*55
1491411829.01,30716,15.0,73344.8,-2.09,-3.59,-3.51,0,*50
1491411830.2,30717,14.94,73342.8,-2.09,-3.39,-3.39,0,*59
1491411831.44,30718,14.94,73342.0,-2.09,-3.47,-3.47,0,*56
1491411832.71,30719,15.0,73344.5,-2.07,-3.43,-3.43,0,*59
1491411833.96,30720,14.94,73344.3,-2.07,-3.35,-3.43,0,*52
1491411835.23,30721,15.0,73344.5,-2.07,-3.43,-3.43,0,*52
1491411836.5,30722,14.94,73346.3,-2.07,-3.47,-3.55,0,*52
1491411837.77,30723,14.94,73344.3,-2.11,-3.59,-3.51,0,*5F
1491411838.98,30724,14.94,73346.8,-2.09,-3.39,-3.47,0,*50
1491411840.2,30725,15.0,73346.5,-2.09,-3.39,-3.47,0,*51
1491411841.47,30726,15.0,73348.0,-2.07,-3.47,-3.43,0,*51
1491411842.74,30727,15.0,73350.0,-2.07,-3.47,-3.43,0,*50
1491411843.99,30728,15.0,73344.3,-2.09,-3.59,-3.59,0,*55
1491411845.23,30729,14.94,73342.8,-2.09,-3.63,-3.59,0,*5D
1491411846.47,30730,14.94,73340.5,-2.09,-3.59,-3.51,0,*54
1491411847.71,30731,14.94,73344.0,-2.09,-3.51,-3.51,0,*5D
1491411848.96,30732,15.0,73346.0,-2.09,-3.51,-3.51,0,*5E
1491411850.2,30733,14.94,73344.5,-2.09,-3.51,-3.51,0,*5F
1491411851.44,30734,15.0,73348.8,-2.09,-3.51,-3.51,0,*58
1491411852.68,30735,14.94,73346.5,-2.09,-3.59,-3.59,0,*59
1491411853.93,30736,15.0,73350.5,-2.09,-3.71,-3.59,0,*50
1491411855.16,30737,15.0,73348.3,-2.09,-3.71,-3.63,0,*58
1491411856.44,30738,14.94,73348.8,-2.07,-3.67,-3.59,0,*57
1491411857.67,30739,14.94,73344.8,-2.09,-3.71,-3.63,0,*56
1491411858.91,30740,14.94,73346.5,-2.09,-3.63,-3.63,0,*5B
1491411860.15,30741,14.94,73344.5,-2.09,-3.71,-3.63,0,*59
1491411861.35,30742,15.0,73348.0,-2.09,-3.87,-3.75,0,*54
1491411862.57,30743,15.0,73348.0,-2.09,-3.75,-3.71,0,*5C
1491411863.81,30744,15.0,73346.3,-2.09,-3.71,-3.59,0,*55
1491411865.05,30745,14.94,73344.3,-2.09,-3.63,-3.51,0,*5F
1491411866.29,30746,14.94,73344.0,-2.09,-3.51,-3.51,0,*5D
1491411867.56,30747,14.94,73346.3,-2.11,-3.59,-3.51,0,*5D
1491411868.8,30748,15.0,73346.3,-2.09,-3.51,-3.47,0,*54
1491411870.06,30749,14.94,73346.0,-2.11,-3.47,-3.47,0,*5B
1491411871.3,30750,14.94,73346.5,-2.09,-3.47,-3.47,0,*5A
1491411872.52,30751,15.0,73344.8,-2.09,-3.47,-3.39,0,*52
1491411873.74,30752,14.94,73342.5,-2.09,-3.47,-3.39,0,*51
1491411875.01,30753,14.94,73346.5,-2.11,-3.47,-3.47,0,*50
1491411876.27,30754,14.94,73346.0,-2.11,-3.47,-3.47,0,*57
1491411877.51,30755,14.94,73344.8,-2.09,-3.47,-3.47,0,*5F
1491411878.71,30756,14.94,73344.0,-2.09,-3.39,-3.39,0,*5C
1491411879.9,30757,14.94,73346.0,-2.09,-3.39,-3.39,0,*5D
1491411881.14,30758,15.0,73346.3,-2.09,-3.47,-3.47,0,*52
1491411882.38,30759,15.0,73348.5,-2.09,-3.47,-3.47,0,*53
1491411883.62,30760,14.94,73344.0,-2.09,-3.47,-3.47,0,*59
1491411884.84,30761,14.94,73344.5,-2.09,-3.47,-3.39,0,*51
1491411886.06,30762,15.0,73346.8,-2.09,-3.47,-3.39,0,*52
1491411887.33,30763,14.94,73344.0,-2.11,-3.47,-3.47,0,*53
1491411888.55,30764,15.0,73350.8,-2.09,-3.47,-3.39,0,*54
1491411889.77,30765,14.94,73346.3,-2.09,-3.47,-3.39,0,*55
1491411890.99,30766,15.0,73348.5,-2.11,-3.39,-3.39,0,*56
1491411892.21,30767,14.94,73344.0,-2.09,-3.47,-3.39,0,*57
1491411893.4,30768,15.0,73350.8,-2.09,-3.39,-3.39,0,*51
1491411894.65,30769,15.0,73348.8,-2.09,-3.51,-3.59,0,*58
1491411895.89,30770,14.94,73344.5,-2.09,-3.59,-3.51,0,*50
1491411897.16,30771,14.94,73344.5,-2.11,-3.51,-3.51,0,*50
1491411898.43,30772,14.94,73344.5,-2.11,-3.59,-3.51,0,*5B
1491411899.7,30773,14.94,73340.5,-2.11,-3.51,-3.51,0,*52
1491411900.94,30774,15.0,73346.3,-2.09,-3.51,-3.51,0,*5C
1491411902.19,30775,14.94,73346.0,-2.11,-3.47,-3.39,0,*5D
1491411903.42,30776,14.94,73346.3,-2.09,-3.47,-3.47,0,*5E
1491411904.66,30777,14.94,73346.5,-2.09,-3.47,-3.47,0,*5F
1491411905.91,30778,15.0,73346.3,-2.11,-3.47,-3.39,0,*50
1491411907.13,30779,15.0,73348.0,-2.11,-3.39,-3.39,0,*58
1491411908.37,30780,14.94,73346.3,-2.09,-3.47,-3.47,0,*57
1491411909.61,30781,15.0,73346.0,-2.09,-3.47,-3.47,0,*56
1491411910.88,30782,15.0,73346.0,-2.11,-3.47,-3.51,0,*5B
1491411912.12,30783,14.94,73342.5,-2.09,-3.51,-3.59,0,*5C
1491411913.37,30784,15.0,73344.5,-2.09,-3.51,-3.51,0,*53
1491411914.61,30785,15.0,73346.8,-2.09,-3.51,-3.51,0,*52
1491411915.85,30786,14.94,73344.3,-2.09,-3.51,-3.51,0,*51
1491411917.06,30787,15.0,73346.5,-2.09,-3.39,-3.47,0,*59
1491411918.3,30788,15.0,73348.5,-2.09,-3.47,-3.47,0,*5F
1491411919.54,30789,14.94,73344.0,-2.09,-3.51,-3.47,0,*59
1491411920.78,30790,14.94,73344.8,-2.09,-3.51,-3.59,0,*5E
1491411922.03,30791,14.94,73348.0,-2.09,-3.51,-3.59,0,*5F
1491411923.27,30792,15.0,73348.3,-2.09,-3.51,-3.51,0,*54
1491411924.54,30793,14.94,73348.3,-2.11,-3.59,-3.51,0,*54
1491411925.76,30794,14.94,73346.8,-2.09,-3.51,-3.39,0,*5C
1491411927.03,30795,15.0,73348.5,-2.11,-3.51,-3.47,0,*5D
1491411928.25,30796,14.94,73346.8,-2.09,-3.51,-3.39,0,*5E
1491411929.47,30797,15.0,73346.0,-2.09,-3.51,-3.39,0,*5F
1491411930.73,30798,15.0,73350.5,-2.11,-3.47,-3.47,0,*57
1491411931.95,30799,14.94,73346.5,-2.09,-3.47,-3.39,0,*56
1491411933.17,30800,14.94,73346.0,-2.09,-3.39,-3.47,0,*59
1491411934.41,30801,14.94,73344.5,-2.11,-3.47,-3.39,0,*51
1491411935.61,30802,15.0,73348.8,-2.09,-3.39,-3.39,0,*52
1491411936.83,30803,15.0,73348.5,-2.11,-3.35,-3.39,0,*56
1491411938.03,30804,14.94,73344.3,-2.09,-3.27,-3.35,0,*57
1491411939.22,30805,14.94,73348.0,-2.09,-3.35,-3.39,0,*59
1491411940.45,30806,14.94,73346.3,-2.11,-3.35,-3.39,0,*53
1491411941.69,30807,14.94,73348.3,-2.09,-3.47,-3.47,0,*57
1491411942.9,30808,15.0,73348.8,-2.09,-3.39,-3.47,0,*51
1491411944.1,30809,15.0,73348.5,-2.09,-3.27,-3.35,0,*5A
1491411945.3,30810,14.94,73346.3,-2.09,-3.27,-3.35,0,*52
1491411946.54,30811,14.94,73346.5,-2.11,-3.35,-3.47,0,*5C
1491411947.73,30812,15.0,73348.3,-2.09,-3.27,-3.35,0,*50
1491411948.96,30813,14.94,73348.3,-2.11,-3.27,-3.27,0,*5B
1491411950.15,30814,14.94,73348.5,-2.09,-3.23,-3.27,0,*51
1491411951.34,30815,15.0,73350.5,-2.09,-3.23,-3.23,0,*54
1491411952.55,30816,14.94,73348.3,-2.07,-3.19,-3.23,0,*50
1491411953.78,30817,14.94,73348.3,-2.11,-3.35,-3.35,0,*5F
1491411954.98,30818,14.94,73346.3,-2.09,-3.35,-3.27,0,*5A
1491411956.18,30819,14.94,73348.8,-2.09,-3.27,-3.27,0,*58
1491411957.38,30820,14.94,73348.8,-2.09,-3.27,-3.27,0,*52
1491411958.57,30821,14.94,73346.0,-2.09,-3.23,-3.27,0,*57
1491411959.77,30822,14.94,73348.0,-2.09,-3.35,-3.27,0,*53
1491411960.97,30823,15.0,73350.5,-2.09,-3.27,-3.35,0,*52
1491411962.19,30824,15.0,73350.8,-2.11,-3.27,-3.35,0,*5C
1491411963.39,30825,14.94,73346.5,-2.09,-3.35,-3.39,0,*5B
1491411964.58,30826,14.94,73350.3,-2.09,-3.35,-3.35,0,*54
1491411965.78,30827,14.94,73346.5,-2.09,-3.35,-3.35,0,*55
1491411967.0,30828,15.0,73350.8,-2.07,-3.31,-3.23,0,*57
1491411968.2,30829,14.94,73346.5,-2.09,-3.35,-3.39,0,*57
1491411969.39,30830,14.94,73344.3,-2.09,-3.35,-3.39,0,*5F
1491411970.59,30831,14.94,73346.0,-2.09,-3.27,-3.27,0,*52
1491411971.79,30832,14.94,73346.8,-2.09,-3.27,-3.35,0,*52
1491411972.99,30833,14.94,73344.3,-2.09,-3.35,-3.27,0,*53
1491411974.21,30834,14.94,73344.8,-2.11,-3.35,-3.35,0,*5E
1491411975.41,30835,14.94,73344.8,-2.09,-3.27,-3.39,0,*59
1491411976.6,30836,14.94,73348.3,-2.09,-3.35,-3.39,0,*59
1491411977.83,30837,14.94,73344.5,-2.11,-3.35,-3.27,0,*5E
1491411979.03,30838,14.94,73344.5,-2.09,-3.27,-3.35,0,*58
1491411980.22,30839,14.94,73350.0,-2.09,-3.39,-3.39,0,*5A
1491411981.42,30840,15.0,73350.5,-2.09,-3.35,-3.35,0,*54
1491411982.62,30841,15.0,73348.5,-2.09,-3.35,-3.27,0,*56
1491411983.82,30842,14.94,73350.0,-2.09,-3.27,-3.39,0,*59
1491411985.01,30843,14.94,73348.0,-2.09,-3.35,-3.39,0,*5B
1491411986.21,30844,14.94,73348.5,-2.09,-3.27,-3.35,0,*53
1491411987.41,30845,14.94,73346.3,-2.09,-3.27,-3.35,0,*52
1491411988.61,30846,14.94,73348.0,-2.09,-3.27,-3.39,0,*5D
1491411989.82,30847,14.94,73348.3,-2.09,-3.39,-3.47,0,*5A
1491411991.03,30848,15.0,73350.5,-2.09,-3.39,-3.47,0,*55
1491411992.28,30849,14.94,73350.0,-2.09,-3.47,-3.51,0,*5A
1491411993.52,30850,14.94,73348.5,-2.09,-3.51,-3.51,0,*55
1491411994.74,30851,15.0,73348.0,-2.11,-3.39,-3.39,0,*5D
1491411995.96,30852,15.0,73350.5,-2.11,-3.39,-3.39,0,*5E
1491411997.18,30853,15.0,73350.5,-2.09,-3.39,-3.51,0,*58
1491411998.39,30854,14.94,73350.3,-2.09,-3.39,-3.47,0,*58
1491411999.62,30855,14.94,73348.0,-2.11,-3.35,-3.35,0,*59
1491412000.84,30856,15.0,73348.3,-2.11,-3.35,-3.35,0,*5A
1491412002.06,30857,14.94,73346.0,-2.11,-3.35,-3.35,0,*5B
1491412003.26,30858,14.94,73346.8,-2.09,-3.35,-3.35,0,*5D
1491412004.46,30859,14.94,73348.8,-2.09,-3.35,-3.35,0,*5C
1491412005.68,30860,14.94,73348.3,-2.11,-3.35,-3.39,0,*53
1491412006.88,30861,14.94,73348.3,-2.09,-3.35,-3.39,0,*5B
1491412008.07,30862,14.94,73346.3,-2.09,-3.39,-3.39,0,*54
1491412009.3,30863,15.0,73348.3,-2.11,-3.27,-3.35,0,*5F
1491412010.49,30864,14.94,73346.3,-2.09,-3.23,-3.27,0,*56
1491412011.69,30865,14.94,73346.3,-2.09,-3.15,-3.27,0,*52
1491412012.9,30866,14.94,73348.8,-2.11,-3.15,-3.23,0,*5C
1491412014.09,30867,14.94,73346.0,-2.09,-3.23,-3.15,0,*54
1491412015.31,30868,14.94,73344.5,-2.07,-3.19,-3.23,0,*59
1491412016.52,30869,14.94,73350.8,-2.11,-3.23,-3.35,0,*51
1491412017.72,30870,14.94,73350.3,-2.09,-3.27,-3.35,0,*54
1491412018.92,30871,14.94,73346.0,-2.09,-3.27,-3.27,0,*56
1491412020.11,30872,14.94,73348.3,-2.09,-3.23,-3.35,0,*52
1491412021.33,30873,14.94,73348.3,-2.11,-3.23,-3.27,0,*59
1491412022.53,30874,14.94,73348.3,-2.09,-3.27,-3.35,0,*50
1491412023.76,30875,14.94,73344.3,-2.11,-3.27,-3.27,0,*5B
1491412024.98,30876,15.0,73350.0,-2.11,-3.27,-3.35,0,*5B
1491412026.2,30877,14.94,73348.8,-2.11,-3.27,-3.39,0,*56
1491412027.43,30878,14.94,73348.3,-2.11,-3.27,-3.27,0,*56
1491412028.65,30879,14.94,73344.8,-2.09,-3.27,-3.47,0,*58
1491412029.86,30880,14.94,73346.8,-2.09,-3.39,-3.47,0,*51
1491412031.06,30881,15.0,73348.5,-2.09,-3.27,-3.35,0,*5A
1491412032.28,30882,14.94,73350.3,-2.11,-3.27,-3.27,0,*53
1491412033.48,30883,15.0,73350.3,-2.09,-3.27,-3.27,0,*5B
1491412034.68,30884,14.94,73348.5,-2.09,-3.27,-3.35,0,*5F
1491412035.92,30885,15.0,73348.3,-2.11,-3.35,-3.47,0,*51
1491412037.12,30886,14.94,73346.8,-2.09,-3.39,-3.27,0,*51
1491412038.35,30887,14.94,73344.0,-2.11,-3.27,-3.27,0,*56
1491412039.57,30888,15.0,73348.3,-2.11,-3.27,-3.35,0,*5A
1491412040.77,30889,15.0,73350.5,-2.09,-3.35,-3.39,0,*5D
1491412041.99,30890,15.0,73350.8,-2.11,-3.35,-3.35,0,*50
1491412043.19,30891,15.0,73346.8,-2.09,-3.27,-3.27,0,*58
1491412044.39,30892,14.94,73346.3,-2.09,-3.27,-3.35,0,*58
1491412045.61,30893,14.94,73342.8,-2.09,-3.35,-3.47,0,*5F
1491412046.8,30894,14.94,73348.3,-2.09,-3.39,-3.39,0,*5D
1491412048.02,30895,15.0,73348.3,-2.11,-3.39,-3.39,0,*55
1491412049.25,30896,14.94,73350.3,-2.11,-3.35,-3.35,0,*56
1491412050.44,30897,14.94,73348.0,-2.09,-3.39,-3.35,0,*52
1491412051.69,30898,14.94,73350.5,-2.11,-3.47,-3.39,0,*51
1491412052.91,30899,15.0,73352.3,-2.11,-3.39,-3.35,0,*55
1491412054.11,30900,15.0,73354.8,-2.09,-3.27,-3.35,0,*52
1491412055.35,30901,14.94,73350.5,-2.09,-3.47,-3.47,0,*50
1491412056.59,30902,15.0,73352.3,-2.09,-3.47,-3.47,0,*53
1491412057.86,30903,14.94,73348.8,-2.11,-3.51,-3.59,0,*53
1491412059.13,30904,14.94,73348.3,-2.11,-3.63,-3.59,0,*55
1491412060.38,30905,15.0,73350.8,-2.09,-3.51,-3.59,0,*5C
1491412061.62,30906,14.94,73348.0,-2.09,-3.59,-3.63,0,*5E
1491412062.87,30907,14.94,73350.3,-2.11,-3.63,-3.75,0,*58
1491412064.1,30908,15.0,73352.0,-2.11,-3.75,-3.75,0,*50
1491412065.36,30909,14.94,73350.3,-2.11,-3.63,-3.63,0,*51
1491412066.63,30910,14.94,73352.0,-2.11,-3.63,-3.71,0,*5A
1491412067.89,30911,15.0,73354.8,-2.11,-3.71,-3.71,0,*58
1491412069.16,30912,14.94,73348.0,-2.11,-3.59,-3.63,0,*52
1491412070.43,30913,14.94,73348.0,-2.11,-3.59,-3.63,0,*53
1491412071.69,30914,14.94,73348.8,-2.11,-3.59,-3.63,0,*54
1491412072.96,30915,14.94,73350.0,-2.11,-3.59,-3.63,0,*55
1491412074.23,30916,14.94,73348.5,-2.11,-3.59,-3.71,0,*55
1491412075.49,30917,14.94,73350.8,-2.11,-3.59,-3.63,0,*57
1491412076.73,30918,14.94,73350.8,-2.09,-3.59,-3.63,0,*51
1491412078.0,30919,14.94,73348.3,-2.11,-3.59,-3.63,0,*59
1491412079.24,30920,14.94,73348.0,-2.09,-3.63,-3.71,0,*50
1491412080.48,30921,14.94,73348.3,-2.09,-3.63,-3.63,0,*52
1491412081.75,30922,14.94,73350.3,-2.11,-3.59,-3.59,0,*58
1491412083.0,30923,14.94,73348.3,-2.09,-3.51,-3.59,0,*58
1491412084.27,30924,14.94,73348.0,-2.11,-3.51,-3.59,0,*56
1491412085.52,30925,14.94,73348.0,-2.09,-3.51,-3.59,0,*5E
1491412086.78,30926,14.94,73352.3,-2.11,-3.59,-3.63,0,*55
1491412087.98,30927,14.94,73350.0,-2.09,-3.87,-3.87,0,*54
1491412089.2,30928,14.94,73348.0,-2.11,-3.75,-3.87,0,*5F
1491412090.45,30929,14.94,73346.8,-2.11,-3.71,-3.79,0,*5B
1491412091.68,30930,14.94,73350.0,-2.11,-3.79,-3.79,0,*5B
1491412092.9,30931,14.94,73346.3,-2.11,-4.05,-4.13,0,*5D
1491412094.18,30932,14.94,73346.8,-2.11,-4.01,-4.01,0,*59
1491412095.41,30933,14.94,73350.0,-2.11,-3.75,-3.87,0,*55
1491412096.63,30934,14.94,73348.3,-2.13,-3.83,-3.83,0,*5D
1491412097.86,30935,14.94,73348.5,-2.13,-3.83,-3.91,0,*5F
1491412099.09,30936,14.94,73350.3,-2.11,-3.79,-3.75,0,*51
1491412100.32,30937,14.94,73348.0,-2.11,-3.79,-3.75,0,*50
1491412101.55,30938,15.0,73350.5,-2.11,-3.79,-3.79,0,*53
1491412102.8,30939,14.94,73346.0,-2.11,-3.79,-3.71,0,*5A
1491412104.03,30940,14.94,73346.3,-2.11,-3.79,-3.75,0,*50
1491412105.26,30941,14.94,73348.0,-2.11,-3.79,-3.79,0,*5D
1491412106.49,30942,14.94,73346.8,-2.13,-3.91,-3.83,0,*5F
1491412107.72,30943,14.94,73344.5,-2.13,-3.79,-3.75,0,*51
1491412108.96,30944,14.94,73344.5,-2.13,-3.79,-3.67,0,*55
1491412110.22,30945,14.94,73346.5,-2.13,-3.67,-3.67,0,*5B
1491412111.49,30946,14.94,73344.8,-2.13,-3.63,-3.55,0,*5D
1491412112.76,30947,14.94,73346.3,-2.11,-3.59,-3.59,0,*5B
1491412114.03,30948,14.94,73346.0,-2.13,-3.63,-3.63,0,*56